Location: Ermatingen
(47.6706°N, 9.0857°E)
Time: 09:34:48
(UTC+00:00)

Cosmos 1428 Rocket - Pass Details

Date: 29 November 2021
Orbit: 949 x 987 km, 82.9° (Epoch: 26 January)

Event Time Altitude Azimuth Distance (km) Brightness Sun altitude
Rises 16:41:25 0° 355° (N) 3,634 7.3 -10.9°
Reaches altitude 10° 16:44:04 10° 3° (N) 2,685 6.6 -11.3°
Maximum altitude 16:49:51 42° 73° (ENE) 1,342 4.8 -12.2°
Drops below altitude 10° 16:55:37 10° 143° (SE) 2,681 6.6 -13.1°
Sets 16:58:15 0° 150° (SSE) 3,628 7.4 -13.5°
